Content
SEND FEEDBACK

Daily
Averages
Monthly
Summary
United States of America

BAYOU LA BATRE, ALABAMA


Home > North America > United States > Alabama
Elevation: 0 feet     Latitude: 30 23N     Longitude: 088 14W

WEATHER
 
SELECT A DAY
Number of Records: 195,805;   Date Range: 8/14/97 - 8/12/14
 
SHARE

PRINT THIS DATA

[ ← Previous Day ]
WEATHER ALMANAC - FEBRUARY 11, 2014
[ Next Day → ]
[ °C ]   °F
Weather ElementAverageHighLow
Temperature43.5 °F48.9 °F (1:00 am)39.9 °F (11:53 pm)
Dewpoint42.6 °F48 °F (1:00 am)39 °F (11:53 pm)
Humidity96.8 %100 % (1:53 am)93 % (5:50 am)
Barometer30.07 in30.13 in (9:53 am)30.02 in (11:53 pm)
Wind Speed11.8 mph16.1 mph (3:53 pm)
Wind Gust21.9 mph (3:53 pm)
Weather ElementAverage
Visibility7.2 mi
Wind DirectionE (86.9 °)

Weather ElementTotal
Precipitation0.28 in
Heating Degree Days20.6 (Base 65)
Averaged from 29 records on February 11, 2014
WEATHER CONDITIONS BREAKOUT
WIND DIRECTION BREAKOUT
WEATHER BY HOUR - FEBRUARY 11, 2014
[ °C ]   °F
Local TimeTemperatureDewpointHumidityBarometerVisibilityWind DirectionWind SpeedGust SpeedPrecipitationEventsConditions
1:00 AM48.9 °F48.0 °F97 %30.07 in4.0 miNNE (20°)4.6 mphOvercast
1:53 AM48.0 °F48.0 °F100 %30.07 in5.0 miNorth (360°)10.4 mphOvercast
2:31 AM46.9 °F46.0 °F97 %30.05 in2.5 miNNE (20°)9.2 mphOvercast
2:53 AM46.0 °F46.0 °F100 %30.06 in2.5 miNorth (360°)6.9 mphOvercast
3:17 AM46.0 °F46.0 °F100 %30.04 in3.0 miNNE (20°)6.9 mphOvercast
3:53 AM46.0 °F46.0 °F100 %30.05 in4.0 miNorth (10°)9.2 mphOvercast
4:53 AM45.0 °F45.0 °F100 %30.08 in3.0 miNorth (10°)13.8 mphOvercast
5:50 AM44.6 °F42.8 °F93 %30.09 in6.0 miNorth (10°)11.5 mph0.03 inRainRain
5:53 AM44.1 °F43.0 °F96 %30.10 in6.0 miNorth (10°)12.7 mph0.04 inRainLight Rain
6:53 AM43.0 °F42.1 °F97 %30.11 in9.0 miNorth (360°)11.5 mph0.09 inRainLight Rain
7:53 AM42.1 °F41.0 °F96 %30.12 in10.0 miNNE (20°)12.7 mph0.00 inRainLight Rain
8:53 AM42.1 °F41.0 °F96 %30.12 in10.0 miNNE (20°)12.7 mph0.00 inRainLight Rain
9:53 AM43.0 °F42.1 °F97 %30.13 in8.0 miNNE (20°)10.4 mph0.00 inRainLight Rain
10:53 AM45.0 °F44.1 °F97 %30.11 in10.0 miNNE (20°)11.5 mph0.00 inOvercast
11:53 AM44.1 °F42.1 °F93 %30.11 in10.0 miNorth (10°)15.0 mphOvercast
12:53 PM43.0 °F42.1 °F97 %30.10 in10.0 miNorth (10°)13.8 mph0.00 inOvercast
1:49 PM42.8 °F42.8 °F100 %30.06 in7.0 miNorth (10°)13.8 mph19.6 mph0.00 inOvercast
1:53 PM43.0 °F42.1 °F97 %30.07 in7.0 miNorth (10°)12.7 mph0.00 inOvercast
2:34 PM43.0 °F42.1 °F97 %30.06 in7.0 miNorth (10°)13.8 mphOvercast
2:53 PM43.0 °F41.0 °F93 %30.06 in6.0 miNNE (20°)13.8 mphOvercast
3:53 PM42.1 °F41.0 °F96 %30.06 in8.0 miNorth (360°)16.1 mph21.9 mph0.00 inRainLight Rain
4:53 PM41.0 °F39.9 °F96 %30.07 in8.0 miNorth (10°)15.0 mph0.04 inRainLight Rain
5:53 PM41.0 °F39.9 °F96 %30.08 in10.0 miNNE (20°)11.5 mph0.00 inRainLight Rain
6:53 PM41.0 °F39.9 °F96 %30.09 in9.0 miNorth (10°)12.7 mph0.01 inRainLight Rain
7:53 PM41.0 °F39.9 °F96 %30.05 in10.0 miNE (40°)12.7 mph0.01 inOvercast
8:53 PM42.1 °F41.0 °F96 %30.04 in10.0 miNNE (20°)9.2 mphOvercast
9:53 PM42.1 °F41.0 °F96 %30.03 in10.0 miNNE (30°)10.4 mphOvercast
10:53 PM42.1 °F41.0 °F96 %30.03 in7.0 miNorth (350°)15.0 mph0.00 inRainLight Rain
11:53 PM39.9 °F39.0 °F97 %30.02 in7.0 miNorth (350°)11.5 mph20.7 mph0.06 inRainLight Rain
Hourly data recorded from KPQL, located miles away from Bayou La Batre, Alabama







STORIES FROM OUR PARTNERS